Location: Mahannah Oil Field
(37.4664°N, 96.6003°W)
Time: 14:57:56
(UTC+00:00)

Vanguard 2 Rocket - Pass Details

Date: 21 January 2021
Orbit: 554 x 3325 km, 32.9° (Epoch: 06 March)

Event Time Altitude Azimuth Distance (km) Brightness Sun altitude
Rises 04:14:09 0° 268° (W) 3,189 - -54.2°
Reaches altitude 10° 04:17:53 10° 241° (WSW) 1,984 - -54.9°
Maximum altitude 04:20:02 14° 211° (SSW) 1,661 - -55.3°
Drops below altitude 10° 04:22:04 10° 179° (S) 1,825 - -55.7°
Sets 04:25:13 0° 151° (SSE) 2,731 - -56.3°
